Zurück zum Katalog

MISR-C-1

AktivWissenschaftVLEO
NORAD 68628·PAYLOAD·🇺🇸 United States

Gestartet Apr 7, 2026 von Vandenberg Space Force Base

Loading…

Nächste Überflüge (nächste 24 Stunden)

TLE

AktuellSource: Space-Track

Epoche: Sep 14, 2026, 05:25 UTC

1 68628U 26074B   26257.22620950  .00007750  00000-0  30838-3 0  9991
2 68628  60.0232 196.4654 0035565  80.5743 279.9356 15.25598516 24353

Verfolge MISR-C-1 in Echtzeit mit AllMySat

Download on the App Store